Flag for Austria Past Weather in Kirchdorf an der Krems, Upper Austria, Austria — Yesterday and Last 2 Weeks

Now
57 °F

Sunny.


Feels Like: 57 °F
Forecast: 54 / 82 °F
Wind: 2 mph from Southwest

Location: Kremsmuenster

Current Time: Aug 24, 2016 at 8:33:16 AM

Latest Report: Aug 24, 2016 at 7:00 AM


Visibility: 41 mi

Pressure: 30.32 "Hg

Humidity: 87%

Dew Point: 53 °F

Location of Kirchdorf an der KremsLocation

Past Weather in Kirchdorf an der Krems — Graph

°F

Kirchdorf an der Krems Temperature Yesterday

Maximum temperature yesterday: 77 °F (at 5:00 PM)
Minimum temperature yesterday: 55 °F (at 7:00 AM)
Average temperature yesterday: 65 °F

High & Low Weather Summary for the Past Weeks

 TemperatureHumidityPressure
High82 °F (Aug 14, 5:00 PM)93% (Aug 16, 5:00 AM)30.43 "Hg (Aug 16, 5:00 AM)
Low49 °F (Aug 11, 7:00 AM)43% (Aug 16, 6:00 PM)29.77 "Hg (Aug 18, 5:00 PM)
Average64 °F75%30.11 "Hg
* Reported Aug 9 7:00 AM — Aug 24 7:00 AM, Kirchdorf an der Krems, Weather by CustomWeather, © 2016

Note: Actual official high and low records may vary slightly from our data, if they occured in-between our weather recording intervals... More about our weather records

Advertising

Kirchdorf an der Krems Weather History for the Previous 24 Hours

Scroll right to see more
 ConditionsComfort  
Time TempWeatherWind HumidityBarometerVisibility
7:00 AM
Wed, Aug 24
57 °FSunny.2 mph87%30.32 "Hg40 mi
6:00 AM58 °FCool.3 mph86%30.31 "HgN/A
5:00 AM59 °FCool.3 mph84%30.30 "HgN/A
4:00 AM59 °FCool.2 mph86%30.32 "HgN/A
3:00 AM60 °FCool.3 mph82%30.32 "HgN/A
2:00 AM61 °FCool.3 mph81%30.33 "HgN/A
1:00 AM62 °FMild.6 mph78%30.33 "HgN/A
12:00 AM64 °FMild.6 mph75%30.33 "HgN/A
11:00 PM
Tue, Aug 23
65 °FMild.6 mph74%30.33 "HgN/A
10:00 PM67 °FMild.5 mph71%30.32 "HgN/A
9:00 PM68 °FMild.1 mph69%30.32 "HgN/A
8:00 PM70 °FPassing clouds.1 mph62%30.30 "Hg37 mi
7:00 PM74 °FMild.1 mph55%30.29 "HgN/A
6:00 PM76 °FMild.1 mph48%30.29 "HgN/A
5:00 PM77 °FPassing clouds.2 mph50%30.29 "Hg37 mi
4:00 PM76 °FMild.2 mph51%30.31 "HgN/A
3:00 PM75 °FMild.2 mph53%30.32 "HgN/A
2:00 PM74 °FMild.2 mph52%30.33 "HgN/A
1:00 PM71 °FMild.2 mph53%30.36 "HgN/A
12:00 PM70 °FMild.2 mph56%30.37 "HgN/A
11:00 AM67 °FPassing clouds.2 mph71%30.39 "Hg31 mi
10:00 AM62 °FCool.1 mph80%30.42 "HgN/A
9:00 AM58 °FCool.1 mph81%30.42 "HgN/A
8:00 AM56 °FPartly sunny.1 mph83%30.43 "Hg16 mi
Weather by CustomWeather, © 2016

See weather overviewHow to use our weather pages